Weather in Kalynivka

Ukraine / Kyiv Region     50°33′38″N   30°49′18″E
temp.,
°C
wind,
m/s
gust,
m/s
humid.,
%
clouds,
%
prec.,
mm/h
press.,
hPa
HPBL,
m
7 march, sun
sun723:00−4w36700 0.0 1025158
02:00−3wsw49730 0.0 1024271
05:00−4sw512830 0.0 1021389
08:00−2wsw7147826 0.0 1019664
11:00+1wsw9157498 0.0 10161223
14:00+2w9157198 0.0 10131429
17:00+2w7147399 0.0 10121201
20:00+1w6148297 0.0 1011940
8 march, mon
mon823:000w6148226 0.0 1010820
02:00−1w6138455 0.0 1009775
05:000w6128496 0.0 1009807
08:00−1wnw597398 0.1 10101074
11:000wnw685940 0.0 10111385
14:00+1wnw585252 0.0 10111737
17:00−1wnw6117199 0.3 10121240
20:00−2nw6116569 0.3 1014905
9 march, tue
tue923:00−3nw59700 0.0 1016797
02:00−3nw48740 0.0 1017688
05:00−4nw477825 0.0 1018706
08:00−4n467860 0.1 1020804
11:00−3nnw4561100 0.0 10211008
14:00−2nnw345193 0.0 10221215
17:00−2nne235489 0.0 1023810
20:00−4ese347694 0.0 1024199
10 march, wed
wed1023:00−4se237495 0.0 1025247
02:00−5se247679 0.0 1025224
05:00−6se347861 0.0 1025219
08:00−5se357181 0.0 1026276
11:00−3se335777 0.0 1026575
14:00−1se335151 0.0 1025903
17:00−3se34620 0.0 1024527
20:00−4se34720 0.0 1026215
11 march, thu
thu1123:00−4sse24730 0.0 1026187
02:00−5sse24750 0.0 1026161
05:00−5sse23730 0.0 1026120
08:00−4sse34650 0.0 1026226
11:00−1s34460 0.0 1026802
14:00+1s45423 0.0 10241250
17:000s475113 0.0 1024608
20:00−2sse6105840 0.0 1024486